| time (UTC) | temp F | wind direction | speed MPH | gust MPH | rain 1hr in | rain 24hr in | rain mn in | humidity % | barometer mb |
| 20260502235703 | 52 | 222 | 5.0 | 7.0 | 0.00 | 0.00 | 0.00 | 46 | 1018.2 |
| 20260502235201 | 52 | 274 | 2.0 | 3.0 | 0.00 | 0.00 | 0.00 | 46 | 1018.2 |
| 20260502234657 | 52 | 46 | 0.0 | 4.0 | 0.00 | 0.00 | 0.00 | 46 | 1018.3 |
| 20260502234155 | 52 | 261 | 1.0 | 6.0 | 0.00 | 0.00 | 0.00 | 46 | 1018.2 |
| 20260502233650 | 52 | 260 | 4.0 | 6.0 | 0.00 | 0.00 | 0.00 | 46 | 1018.1 |
| 20260502233147 | 52 | 271 | 2.0 | 3.0 | 0.00 | 0.00 | 0.00 | 47 | 1018.3 |
| 20260502232643 | 52 | 257 | 1.0 | 4.0 | 0.00 | 0.00 | 0.00 | 48 | 1018.2 |
| 20260502232141 | 52 | 277 | 1.0 | 1.0 | 0.00 | 0.00 | 0.00 | 46 | 1018.1 |
| 20260502231637 | 53 | 236 | 0.0 | 3.0 | 0.00 | 0.00 | 0.00 | 47 | 1018.0 |
| 20260502231135 | 53 | 339 | 2.0 | 3.0 | 0.00 | 0.00 | 0.00 | 44 | 1018.2 |
| 20260502230633 | 53 | 209 | 2.0 | 3.0 | 0.00 | 0.00 | 0.00 | 45 | 1018.0 |
| 20260502230132 | 53 | 256 | 3.0 | 4.0 | 0.00 | 0.00 | 0.00 | 44 | 1018.1 |
| 20260502225626 | 53 | 321 | 2.0 | 6.0 | 0.00 | 0.00 | 0.00 | 44 | 1017.9 |
| 20260502225125 | 53 | 234 | 2.0 | 4.0 | 0.00 | 0.00 | 0.00 | 45 | 1017.9 |
| 20260502224620 | 53 | 210 | 2.0 | 3.0 | 0.00 | 0.00 | 0.00 | 45 | 1017.9 |
| 20260502224117 | 53 | 228 | 3.0 | 4.0 | 0.00 | 0.00 | 0.00 | 43 | 1017.7 |
| 20260502223615 | 53 | 287 | 2.0 | 3.0 | 0.00 | 0.00 | 0.00 | 44 | 1017.7 |
| 20260502223113 | 54 | 196 | 5.0 | 7.0 | 0.00 | 0.00 | 0.00 | 44 | 1017.7 |
| 20260502222610 | 54 | 11 | 6.0 | 7.0 | 0.00 | 0.00 | 0.00 | 43 | 1017.6 |
| 20260502222106 | 54 | 305 | 2.0 | 6.0 | 0.00 | 0.00 | 0.00 | 43 | 1018.0 |
| 20260502221602 | 54 | 205 | 6.0 | 8.0 | 0.00 | 0.00 | 0.00 | 43 | 1017.6 |
| 20260502221100 | 54 | 229 | 0.0 | 3.0 | 0.00 | 0.00 | 0.00 | 43 | 1017.6 |
| 20260502220555 | 54 | 268 | 5.0 | 7.0 | 0.00 | 0.00 | 0.00 | 43 | 1017.7 |
| 20260502220052 | 54 | 285 | 4.0 | 8.0 | 0.00 | 0.00 | 0.00 | 42 | 1017.7 |
| 20260502215549 | 55 | 255 | 2.0 | 3.0 | 0.00 | 0.00 | 0.00 | 44 | 1017.6 |
| 20260502215046 | 55 | 310 | 3.0 | 4.0 | 0.00 | 0.00 | 0.00 | 42 | 1017.5 |
| 20260502214543 | 55 | 5 | 3.0 | 6.0 | 0.00 | 0.00 | 0.00 | 41 | 1017.4 |
| 20260502214041 | 54 | 270 | 2.0 | 7.0 | 0.00 | 0.00 | 0.00 | 43 | 1017.6 |
| 20260502213537 | 54 | 313 | 6.0 | 8.0 | 0.00 | 0.00 | 0.00 | 41 | 1017.4 |
| 20260502213035 | 54 | 293 | 3.0 | 7.0 | 0.00 | 0.00 | 0.00 | 43 | 1017.3 |
| 20260502212534 | 54 | 39 | 1.0 | 4.0 | 0.00 | 0.00 | 0.00 | 44 | 1017.4 |
| 20260502212031 | 55 | 277 | 2.0 | 7.0 | 0.00 | 0.00 | 0.00 | 43 | 1017.3 |
| 20260502211526 | 55 | 254 | 4.0 | 6.0 | 0.00 | 0.00 | 0.00 | 42 | 1017.4 |
| 20260502211024 | 55 | 287 | 2.0 | 9.0 | 0.00 | 0.00 | 0.00 | 42 | 1017.3 |
| 20260502210521 | 55 | 295 | 3.0 | 8.0 | 0.00 | 0.00 | 0.00 | 43 | 1017.4 |
| 20260502210018 | 55 | 243 | 4.0 | 7.0 | 0.00 | 0.00 | 0.00 | 44 | 1017.6 |
| 20260502205514 | 55 | 16 | 2.0 | 6.0 | 0.00 | 0.00 | 0.00 | 44 | 1017.3 |
| 20260502205011 | 54 | 3 | 2.0 | 8.0 | 0.00 | 0.00 | 0.00 | 46 | 1017.5 |
| 20260502204508 | 54 | 296 | 1.0 | 4.0 | 0.00 | 0.00 | 0.00 | 44 | 1017.5 |
| 20260502204007 | 54 | 275 | 4.0 | 6.0 | 0.00 | 0.00 | 0.00 | 45 | 1017.6 |
| 20260502203503 | 54 | 287 | 6.0 | 8.0 | 0.00 | 0.00 | 0.00 | 44 | 1017.5 |
| 20260502203000 | 54 | 281 | 6.0 | 7.0 | 0.00 | 0.00 | 0.00 | 45 | 1017.6 |
| 20260502202456 | 55 | 275 | 2.0 | 8.0 | 0.00 | 0.00 | 0.00 | 45 | 1017.7 |
| 20260502201954 | 56 | 2 | 0.0 | 2.0 | 0.00 | 0.00 | 0.00 | 43 | 1017.6 |
| 20260502201450 | 54 | 339 | 2.0 | 3.0 | 0.00 | 0.00 | 0.00 | 46 | 1017.7 |
| 20260502200947 | 53 | 243 | 3.0 | 8.0 | 0.00 | 0.00 | 0.00 | 44 | 1017.7 |
| 20260502200443 | 53 | 295 | 3.0 | 4.0 | 0.00 | 0.00 | 0.00 | 47 | 1017.9 |
| 20260502195940 | 53 | 250 | 0.0 | 3.0 | 0.00 | 0.00 | 0.00 | 46 | 1017.9 |
| 20260502195437 | 53 | 340 | 2.0 | 4.0 | 0.00 | 0.00 | 0.00 | 46 | 1017.9 |
| 20260502194934 | 53 | 26 | 1.0 | 2.0 | 0.00 | 0.00 | 0.00 | 49 | 1018.1 |
| 20260502194431 | 54 | 246 | 2.0 | 3.0 | 0.00 | 0.00 | 0.00 | 44 | 1018.0 |
| 20260502193926 | 54 | 15 | 4.0 | 4.0 | 0.00 | 0.00 | 0.00 | 43 | 1018.0 |
| 20260502193424 | 55 | 209 | 2.0 | 4.0 | 0.00 | 0.00 | 0.00 | 41 | 1017.9 |
| 20260502192919 | 56 | 251 | 4.0 | 7.0 | 0.00 | 0.00 | 0.00 | 39 | 1018.1 |
| 20260502192416 | 56 | 275 | 3.0 | 6.0 | 0.00 | 0.00 | 0.00 | 42 | 1018.0 |
| 20260502191914 | 54 | 283 | 4.0 | 6.0 | 0.00 | 0.00 | 0.00 | 47 | 1018.3 |
| 20260502191411 | 54 | 262 | 4.0 | 10.0 | 0.00 | 0.00 | 0.00 | 42 | 1018.1 |
| 20260502190909 | 55 | 292 | 4.0 | 7.0 | 0.00 | 0.00 | 0.00 | 42 | 1018.1 |
| 20260502190406 | 56 | 71 | 2.0 | 6.0 | 0.00 | 0.00 | 0.00 | 39 | 1018.3 |
| 20260502185902 | 55 | 209 | 2.0 | 9.0 | 0.00 | 0.00 | 0.00 | 44 | 1018.3 |
| 20260502185357 | 55 | 8 | 8.0 | 10.0 | 0.00 | 0.00 | 0.00 | 43 | 1018.5 |
| 20260502184855 | 53 | 334 | 0.0 | 3.0 | 0.00 | 0.00 | 0.00 | 48 | 1018.5 |
| 20260502184350 | 53 | 235 | 4.0 | 8.0 | 0.00 | 0.00 | 0.00 | 44 | 1018.4 |
| 20260502183847 | 54 | 244 | 1.0 | 3.0 | 0.00 | 0.00 | 0.00 | 44 | 1018.6 |
| 20260502183343 | 54 | 277 | 2.0 | 3.0 | 0.00 | 0.00 | 0.00 | 46 | 1018.6 |
| 20260502182838 | 54 | 280 | 4.0 | 8.0 | 0.00 | 0.00 | 0.00 | 43 | 1018.6 |
| 20260502182334 | 54 | 343 | 2.0 | 4.0 | 0.00 | 0.00 | 0.00 | 44 | 1018.5 |
| 20260502181830 | 53 | 15 | 3.0 | 6.0 | 0.00 | 0.00 | 0.00 | 44 | 1018.7 |
| 20260502181329 | 53 | 305 | 2.0 | 3.0 | 0.00 | 0.00 | 0.00 | 44 | 1018.7 |
| 20260502180827 | 53 | 180 | 2.0 | 7.0 | 0.00 | 0.00 | 0.00 | 43 | 1018.7 |
| 20260502180324 | 53 | 198 | 2.0 | 8.0 | 0.00 | 0.00 | 0.00 | 43 | 1018.7 |
| 20260502170243 | 54 | 76 | 1.0 | 8.0 | 0.00 | 0.00 | 0.00 | 46 | 1019.0 |
| 20260502164231 | 54 | 48 | 2.0 | 6.0 | 0.00 | 0.00 | 0.00 | 48 | 1019.1 |
| 20260502163726 | 53 | 285 | 3.0 | 3.0 | 0.00 | 0.00 | 0.00 | 47 | 1019.2 |
| 20260502163223 | 53 | 357 | 4.0 | 9.0 | 0.00 | 0.00 | 0.00 | 47 | 1019.2 |
| 20260502162719 | 53 | 76 | 2.0 | 6.0 | 0.00 | 0.00 | 0.00 | 44 | 1019.2 |
| 20260502162216 | 54 | 234 | 4.0 | 8.0 | 0.00 | 0.00 | 0.00 | 44 | 1019.2 |
| 20260502161714 | 54 | 126 | 2.0 | 3.0 | 0.00 | 0.00 | 0.00 | 46 | 1019.3 |
| 20260502161210 | 53 | 28 | 3.0 | 6.0 | 0.00 | 0.00 | 0.00 | 48 | 1019.2 |
| 20260502160708 | 55 | 53 | 4.0 | 11.0 | 0.00 | 0.00 | 0.00 | 49 | 1019.3 |
| 20260502160207 | 54 | 275 | 3.0 | 10.0 | 0.00 | 0.00 | 0.00 | 46 | 1019.4 |
| 20260502152114 | 52 | 31 | 2.0 | 6.0 | 0.00 | 0.00 | 0.00 | 48 | 1019.6 |
| 20260502151612 | 52 | 315 | 4.0 | 7.0 | 0.00 | 0.00 | 0.00 | 54 | 1019.7 |
| 20260502151109 | 50 | 8 | 2.0 | 3.0 | 0.00 | 0.00 | 0.00 | 53 | 1019.5 |
| 20260502150606 | 51 | 240 | 6.0 | 8.0 | 0.00 | 0.00 | 0.00 | 51 | 1019.7 |
| 20260502130451 | 43 | 12 | 0.0 | 1.0 | 0.00 | 0.00 | 0.00 | 90 | 1019.7 |
| 20260502123434 | 40 | 50 | 0.0 | 1.0 | 0.00 | 0.00 | 0.00 | 99 | 1019.8 |
| 20260502122931 | 39 | 38 | 1.0 | 1.0 | 0.00 | 0.00 | 0.00 | 99 | 1019.6 |
| 20260502122427 | 39 | 23 | 0.0 | 0.0 | 0.00 | 0.00 | 0.00 | 99 | 1019.6 |
| 20260502121925 | 38 | 16 | 0.0 | 0.0 | 0.00 | 0.00 | 0.00 | 99 | 1019.7 |
| 20260502121422 | 37 | 348 | 0.0 | 0.0 | 0.00 | 0.00 | 0.00 | 99 | 1019.7 |
| 20260502120920 | 37 | 13 | 0.0 | 0.0 | 0.00 | 0.00 | 0.00 | 99 | 1019.6 |
| 20260502120416 | 37 | 14 | 0.0 | 0.0 | 0.00 | 0.00 | 0.00 | 99 | 1019.6 |
| 20260502115913 | 37 | 21 | 0.0 | 0.0 | 0.00 | 0.00 | 0.00 | 99 | 1019.7 |
| 20260502115410 | 36 | 37 | 0.0 | 0.0 | 0.00 | 0.00 | 0.00 | 99 | 1019.5 |
| 20260502114906 | 36 | 41 | 0.0 | 0.0 | 0.00 | 0.00 | 0.00 | 99 | 1019.6 |
| 20260502114403 | 36 | 120 | 0.0 | 0.0 | 0.00 | 0.00 | 0.00 | 99 | 1019.4 |
| 20260502113900 | 36 | 122 | 0.0 | 0.0 | 0.00 | 0.00 | 0.00 | 99 | 1019.4 |
| 20260502113358 | 37 | 123 | 0.0 | 0.0 | 0.00 | 0.00 | 0.00 | 99 | 1019.5 |
| 20260502112856 | 35 | 123 | 0.0 | 0.0 | 0.00 | 0.00 | 0.00 | 99 | 1019.4 |
| 20260502112353 | 34 | 123 | 0.0 | 0.0 | 0.00 | 0.00 | 0.00 | 99 | 1019.2 |
| 20260502111850 | 34 | 123 | 0.0 | 0.0 | 0.00 | 0.00 | 0.00 | 99 | 1019.4 |
| 20260502111348 | 34 | 123 | 0.0 | 0.0 | 0.00 | 0.00 | 0.00 | 99 | 1019.2 |
| 20260502110845 | 33 | 123 | 0.0 | 0.0 | 0.00 | 0.00 | 0.00 | 99 | 1019.2 |
| 20260502110343 | 33 | 123 | 0.0 | 0.0 | 0.00 | 0.00 | 0.00 | 99 | 1019.3 |
| 20260502105840 | 33 | 123 | 0.0 | 0.0 | 0.00 | 0.00 | 0.00 | 99 | 1019.1 |
| 20260502105337 | 33 | 123 | 0.0 | 0.0 | 0.00 | 0.00 | 0.00 | 99 | 1019.1 |
| 20260502104835 | 33 | 122 | 0.0 | 0.0 | 0.00 | 0.00 | 0.00 | 99 | 1018.9 |
| 20260502104332 | 33 | 122 | 0.0 | 0.0 | 0.00 | 0.00 | 0.00 | 99 | 1019.0 |
| 20260502103829 | 33 | 122 | 0.0 | 0.0 | 0.00 | 0.00 | 0.00 | 99 | 1019.0 |
| 20260502103326 | 33 | 122 | 0.0 | 0.0 | 0.00 | 0.00 | 0.00 | 99 | 1018.9 |
| 20260502102824 | 33 | 122 | 0.0 | 0.0 | 0.00 | 0.00 | 0.00 | 99 | 1019.0 |
| 20260502102320 | 33 | 122 | 0.0 | 0.0 | 0.00 | 0.00 | 0.00 | 99 | 1019.0 |
| 20260502101818 | 33 | 122 | 0.0 | 0.0 | 0.00 | 0.00 | 0.00 | 99 | 1019.3 |
| 20260502101316 | 33 | 122 | 0.0 | 0.0 | 0.00 | 0.00 | 0.00 | 99 | 1019.4 |
| 20260502100814 | 33 | 122 | 0.0 | 0.0 | 0.00 | 0.00 | 0.00 | 99 | 1019.5 |
| 20260502100313 | 33 | 122 | 0.0 | 0.0 | 0.00 | 0.00 | 0.00 | 99 | 1019.3 |
| 20260502091247 | 34 | 123 | 0.0 | 0.0 | 0.00 | 0.00 | 0.00 | 99 | 1019.5 |
| 20260502090744 | 34 | 123 | 0.0 | 0.0 | 0.00 | 0.00 | 0.00 | 99 | 1019.3 |
| 20260502090240 | 34 | 123 | 0.0 | 0.0 | 0.00 | 0.00 | 0.00 | 99 | 1019.5 |
| 20260502071141 | 35 | 123 | 0.0 | 0.0 | 0.00 | 0.00 | 0.00 | 98 | 1019.0 |
| 20260502070639 | 35 | 123 | 0.0 | 0.0 | 0.00 | 0.00 | 0.00 | 98 | 1019.0 |
| 20260502070137 | 36 | 122 | 0.0 | 0.0 | 0.00 | 0.00 | 0.00 | 98 | 1019.3 |
| 20260502065635 | 36 | 123 | 0.0 | 0.0 | 0.00 | 0.00 | 0.00 | 98 | 1019.1 |
| 20260502065132 | 36 | 121 | 0.0 | 0.0 | 0.00 | 0.00 | 0.00 | 98 | 1019.1 |
| 20260502064631 | 36 | 122 | 0.0 | 0.0 | 0.00 | 0.00 | 0.00 | 98 | 1019.3 |
| 20260502064128 | 36 | 122 | 0.0 | 0.0 | 0.00 | 0.00 | 0.00 | 98 | 1019.2 |
| 20260502063625 | 36 | 121 | 0.0 | 0.0 | 0.00 | 0.00 | 0.00 | 98 | 1019.2 |
| 20260502063123 | 36 | 121 | 0.0 | 0.0 | 0.00 | 0.00 | 0.00 | 98 | 1019.1 |
| 20260502062620 | 36 | 121 | 0.0 | 0.0 | 0.00 | 0.00 | 0.00 | 98 | 1019.2 |
| 20260502062117 | 36 | 121 | 0.0 | 0.0 | 0.00 | 0.00 | 0.00 | 98 | 1019.2 |
| 20260502061615 | 37 | 121 | 0.0 | 0.0 | 0.00 | 0.00 | 0.00 | 98 | 1019.3 |
| 20260502061113 | 37 | 121 | 0.0 | 0.0 | 0.00 | 0.00 | 0.00 | 98 | 1019.5 |
| 20260502060613 | 37 | 121 | 0.0 | 0.0 | 0.00 | 0.00 | 0.00 | 98 | 1019.5 |
| 20260502060110 | 37 | 121 | 0.0 | 0.0 | 0.00 | 0.00 | 0.00 | 98 | 1019.7 |
| 20260502055608 | 37 | 121 | 0.0 | 0.0 | 0.00 | 0.00 | 0.00 | 97 | 1019.7 |
| 20260502055106 | 37 | 121 | 0.0 | 0.0 | 0.00 | 0.00 | 0.00 | 97 | 1019.7 |
| 20260502054604 | 37 | 121 | 0.0 | 0.0 | 0.00 | 0.00 | 0.00 | 97 | 1019.4 |
| 20260502054101 | 37 | 121 | 0.0 | 0.0 | 0.00 | 0.00 | 0.00 | 97 | 1019.4 |
| 20260502053558 | 38 | 121 | 0.0 | 0.0 | 0.00 | 0.00 | 0.00 | 97 | 1019.7 |
| 20260502053055 | 38 | 121 | 0.0 | 0.0 | 0.00 | 0.00 | 0.00 | 97 | 1019.7 |
| 20260502052554 | 38 | 121 | 0.0 | 0.0 | 0.00 | 0.00 | 0.00 | 97 | 1019.7 |
| 20260502052052 | 38 | 121 | 0.0 | 0.0 | 0.00 | 0.00 | 0.00 | 97 | 1019.7 |
| 20260502051549 | 38 | 121 | 0.0 | 0.0 | 0.00 | 0.00 | 0.00 | 97 | 1019.8 |
| 20260502051047 | 38 | 121 | 0.0 | 0.0 | 0.00 | 0.00 | 0.00 | 96 | 1019.7 |
| 20260502050543 | 38 | 121 | 0.0 | 0.0 | 0.00 | 0.00 | 0.00 | 96 | 1019.7 |
| 20260502050040 | 38 | 121 | 0.0 | 0.0 | 0.00 | 0.00 | 0.00 | 96 | 1019.9 |
| 20260502045537 | 38 | 121 | 0.0 | 0.0 | 0.00 | 0.00 | 0.00 | 96 | 1019.9 |
| 20260502045034 | 39 | 121 | 0.0 | 0.0 | 0.00 | 0.00 | 0.00 | 96 | 1019.9 |
| 20260502044530 | 39 | 121 | 0.0 | 0.0 | 0.00 | 0.00 | 0.00 | 95 | 1019.7 |
| 20260502044027 | 39 | 121 | 0.0 | 0.0 | 0.00 | 0.00 | 0.00 | 95 | 1019.7 |
| 20260502043525 | 39 | 121 | 0.0 | 0.0 | 0.00 | 0.00 | 0.00 | 95 | 1020.0 |
| 20260502043020 | 39 | 121 | 0.0 | 0.0 | 0.00 | 0.00 | 0.00 | 94 | 1019.8 |
| 20260502042516 | 39 | 121 | 0.0 | 0.0 | 0.00 | 0.00 | 0.00 | 94 | 1019.9 |
| 20260502042014 | 40 | 121 | 0.0 | 0.0 | 0.00 | 0.00 | 0.00 | 93 | 1019.9 |
| 20260502041511 | 40 | 121 | 0.0 | 0.0 | 0.00 | 0.00 | 0.00 | 93 | 1019.8 |
| 20260502041008 | 40 | 121 | 0.0 | 0.0 | 0.00 | 0.00 | 0.00 | 92 | 1019.8 |
| 20260502040504 | 41 | 121 | 0.0 | 0.0 | 0.00 | 0.00 | 0.00 | 92 | 1019.9 |
| 20260502040001 | 41 | 121 | 0.0 | 0.0 | 0.00 | 0.00 | 0.00 | 92 | 1020.0 |
| 20260502035457 | 41 | 121 | 0.0 | 0.0 | 0.00 | 0.00 | 0.00 | 91 | 1019.7 |
| 20260502034955 | 41 | 121 | 0.0 | 0.0 | 0.00 | 0.00 | 0.00 | 89 | 1019.9 |
| 20260502034453 | 42 | 121 | 0.0 | 0.0 | 0.00 | 0.00 | 0.00 | 90 | 1019.8 |
| 20260502033951 | 42 | 121 | 0.0 | 0.0 | 0.00 | 0.00 | 0.00 | 90 | 1019.5 |
| 20260502033448 | 42 | 121 | 0.0 | 0.0 | 0.00 | 0.00 | 0.00 | 89 | 1019.6 |
| 20260502032945 | 42 | 121 | 0.0 | 0.0 | 0.00 | 0.00 | 0.00 | 89 | 1019.5 |
| 20260502032442 | 43 | 121 | 0.0 | 0.0 | 0.00 | 0.00 | 0.00 | 88 | 1019.5 |
| 20260502031939 | 43 | 121 | 0.0 | 0.0 | 0.00 | 0.00 | 0.00 | 88 | 1019.6 |
| 20260502031437 | 43 | 121 | 0.0 | 0.0 | 0.00 | 0.00 | 0.00 | 86 | 1019.7 |
| 20260502030935 | 43 | 121 | 0.0 | 0.0 | 0.00 | 0.00 | 0.00 | 85 | 1019.8 |
| 20260502030433 | 44 | 121 | 0.0 | 0.0 | 0.00 | 0.00 | 0.00 | 84 | 1019.8 |
| 20260502025931 | 44 | 121 | 0.0 | 0.0 | 0.00 | 0.00 | 0.00 | 83 | 1019.8 |
| 20260502025427 | 44 | 121 | 0.0 | 0.0 | 0.00 | 0.00 | 0.00 | 82 | 1019.9 |
| 20260502024925 | 44 | 121 | 0.0 | 0.0 | 0.00 | 0.00 | 0.00 | 83 | 1019.9 |
| 20260502024423 | 45 | 121 | 0.0 | 0.0 | 0.00 | 0.00 | 0.00 | 82 | 1019.9 |
| 20260502023921 | 45 | 121 | 0.0 | 0.0 | 0.00 | 0.00 | 0.00 | 82 | 1019.8 |
| 20260502023418 | 46 | 123 | 0.0 | 0.0 | 0.00 | 0.00 | 0.00 | 80 | 1019.7 |
| 20260502022916 | 46 | 123 | 0.0 | 0.0 | 0.00 | 0.00 | 0.00 | 77 | 1019.7 |
| 20260502022412 | 46 | 123 | 0.0 | 0.0 | 0.00 | 0.00 | 0.00 | 78 | 1019.8 |
| 20260502021909 | 47 | 123 | 0.0 | 0.0 | 0.00 | 0.00 | 0.00 | 74 | 1019.9 |
| 20260502021406 | 47 | 123 | 0.0 | 0.0 | 0.00 | 0.00 | 0.00 | 70 | 1019.7 |
| 20260502020903 | 48 | 118 | 0.0 | 0.0 | 0.00 | 0.00 | 0.00 | 70 | 1019.6 |
| 20260502020401 | 48 | 119 | 0.0 | 1.0 | 0.00 | 0.00 | 0.00 | 69 | 1019.3 |
| 20260502015858 | 48 | 336 | 1.0 | 2.0 | 0.00 | 0.00 | 0.00 | 68 | 1019.2 |
| 20260502015355 | 48 | 352 | 0.0 | 0.0 | 0.00 | 0.00 | 0.00 | 68 | 1019.0 |
| 20260502014852 | 49 | 262 | 0.0 | 2.0 | 0.00 | 0.00 | 0.00 | 68 | 1018.9 |
| 20260502014349 | 49 | 297 | 2.0 | 3.0 | 0.00 | 0.00 | 0.00 | 68 | 1018.9 |
| 20260502013845 | 49 | 247 | 1.0 | 3.0 | 0.00 | 0.00 | 0.00 | 67 | 1018.7 |
| 20260502013341 | 49 | 40 | 1.0 | 4.0 | 0.00 | 0.00 | 0.00 | 68 | 1018.6 |
| 20260502012837 | 49 | 36 | 0.0 | 1.0 | 0.00 | 0.00 | 0.00 | 68 | 1018.8 |
| 20260502012336 | 50 | 260 | 1.0 | 2.0 | 0.00 | 0.00 | 0.00 | 67 | 1018.6 |
| 20260502011832 | 50 | 253 | 1.0 | 6.0 | 0.00 | 0.00 | 0.00 | 67 | 1018.7 |
| 20260502011328 | 50 | 2 | 2.0 | 11.0 | 0.00 | 0.00 | 0.00 | 66 | 1018.4 |
| 20260502010826 | 51 | 280 | 3.0 | 7.0 | 0.00 | 0.00 | 0.00 | 65 | 1018.4 |
| 20260502010322 | 51 | 291 | 4.0 | 9.0 | 0.00 | 0.00 | 0.00 | 65 | 1018.3 |
| 20260502005819 | 52 | 279 | 4.0 | 8.0 | 0.00 | 0.00 | 0.00 | 65 | 1018.1 |
| 20260502005317 | 52 | 38 | 0.0 | 4.0 | 0.00 | 0.00 | 0.00 | 65 | 1017.7 |
| 20260502004814 | 52 | 285 | 3.0 | 11.0 | 0.00 | 0.00 | 0.00 | 65 | 1017.6 |
| 20260502004310 | 53 | 62 | 2.0 | 7.0 | 0.00 | 0.00 | 0.00 | 65 | 1017.5 |
| 20260502003808 | 53 | 121 | 3.0 | 4.0 | 0.00 | 0.00 | 0.00 | 65 | 1017.5 |
| 20260502003305 | 53 | 283 | 2.0 | 9.0 | 0.00 | 0.00 | 0.00 | 65 | 1017.2 |
| 20260502002800 | 53 | 313 | 2.0 | 4.0 | 0.00 | 0.00 | 0.00 | 65 | 1017.0 |
| 20260502002258 | 53 | 41 | 3.0 | 4.0 | 0.00 | 0.00 | 0.00 | 65 | 1016.9 |
| 20260502001755 | 54 | 305 | 2.0 | 6.0 | 0.00 | 0.00 | 0.00 | 64 | 1017.0 |
| 20260502001254 | 54 | 54 | 3.0 | 6.0 | 0.00 | 0.00 | 0.00 | 64 | 1017.0 |
| 20260502000751 | 54 | 250 | 5.0 | 7.0 | 0.00 | 0.00 | 0.00 | 63 | 1016.8 |
| 20260502000249 | 54 | 59 | 2.0 | 11.0 | 0.00 | 0.00 | 0.00 | 63 | 1016.7 |